WetterOnline ( https://www.wetteronline.ch )

Wetter aktuell Lusen

Aktuelles Wetter: Churanov/Böhmerwald (1122m)

6-stündlich | Neueste Meldungen
Ortszeit Temperatur Wetter
Mo, 29.11. 7:00 -5.3° C leichter Schneefall
Mo, 29.11. 1:00 -5.1° C leichte Schneeschauer
So, 28.11. 19:00 -6.9° C leichte Schneeschauer
So, 28.11. 13:00 -4.4° C leichter Schneefall
So, 28.11. 7:00 -4.1° C Schneefall
So, 28.11. 1:00 -2.7° C bewölkt
Sa, 27.11. 19:00 -2.5° C bedeckt
Sa, 27.11. 13:00 -1.1° C leichte Schneeschauer
Ortszeit Temperatur Wetter
Mo, 29.11. 12:00 -4.2° C bewölkt
Mo, 29.11. 11:00 -4.8° C leichte Schneeschauer
Mo, 29.11. 10:00 -4.7° C leichter Schneefall
Mo, 29.11. 9:00 -5.2° C leichter Schneefall
Mo, 29.11. 8:00 -5.3° C leichter Schneefall
Mo, 29.11. 7:00 -5.3° C leichter Schneefall
Ortszeit Relative Feuchte Sichtweite
Mo, 29.11. 7:00 94% 15 km
Mo, 29.11. 1:00 94% 35 km
So, 28.11. 19:00 91% 14 km
So, 28.11. 13:00 93% 4.2 km
So, 28.11. 7:00 94% 1.6 km
So, 28.11. 1:00 92% 30 km
Sa, 27.11. 19:00 95% 14 km
Sa, 27.11. 13:00 86% 35 km
Ortszeit Relative Feuchte Sichtweite
Mo, 29.11. 12:00 88% 18 km
Mo, 29.11. 11:00 90% 15 km
Mo, 29.11. 10:00 92% 6 km
Mo, 29.11. 9:00 92% 12 km
Mo, 29.11. 8:00 94% 12 km
Mo, 29.11. 7:00 94% 15 km
Ortszeit Niederschlagsmenge Niederschlagsart
Mo, 29.11. 7:00 0.1 l/m2 in 12 Std. -
Mo, 29.11. 1:00 0.1 l/m2 in 6 Std. Schnee
So, 28.11. 19:00 4 l/m2 in 12 Std. -
So, 28.11. 13:00 4 l/m2 in 6 Std. Schnee
So, 28.11. 7:00 1 l/m2 in 12 Std. -
So, 28.11. 1:00 0.1 l/m2 in 6 Std. Schneeschauer
Sa, 27.11. 19:00 0.1 l/m2 in 12 Std. Schneeschauer
Sa, 27.11. 13:00 0.1 l/m2 in 6 Std. Schauer
Ortszeit Niederschlagsmenge Niederschlagsart
Mo, 29.11. 12:00 0.1 l/m2 in 1 Std. Schauer
Mo, 29.11. 11:00 0.3 l/m2 in 1 Std. Schneeschauer
Mo, 29.11. 10:00 0.1 l/m2 in 1 Std. Schnee
Mo, 29.11. 9:00 0.1 l/m2 in 1 Std. Schnee
Mo, 29.11. 8:00 0.1 l/m2 in 1 Std. Schnee
Mo, 29.11. 7:00 0.0 l/m2 in 1 Std. -
Ortszeit Stärke Spitze Richtung
km/h Bft. km/h Grad Sektor
Mo, 29.11. 7:00 7 2 - 280° W
Mo, 29.11. 1:00 4 1 - 280° W
So, 28.11. 19:00 7 2 - 260° W
So, 28.11. 13:00 7 2 - - -
So, 28.11. 7:00 7 2 - 320° NW
So, 28.11. 1:00 4 1 - - -
Sa, 27.11. 19:00 18 3 43 220° SW
Sa, 27.11. 13:00 14 3 40 220° SW
Ortszeit Stärke Spitze Richtung
km/h Bft. km/h Grad Sektor
Mo, 29.11. 12:00 11 2 - 280° W
Mo, 29.11. 11:00 14 3 - 270° W
Mo, 29.11. 10:00 11 2 - 270° W
Mo, 29.11. 9:00 11 2 - 270° W
Mo, 29.11. 8:00 7 2 - - -
Mo, 29.11. 7:00 7 2 - 280° W
Ortszeit Untergrenze Bedeckung Gattung
total tief tief mittel hoch
Mo, 29.11. 7:00 90 m 8/8 8/8 Sc - -
Mo, 29.11. 1:00 90 m - 8/8 - - -
So, 28.11. 19:00 1290 m 2/8 2/8 Cu - -
So, 28.11. 13:00 60 m 8/8 6/8 St Ns -
So, 28.11. 7:00 90 m 8/8 7/8 St Ns -
So, 28.11. 1:00 150 m - 7/8 - - -
Sa, 27.11. 19:00 60 m 8/8 7/8 St - -
Sa, 27.11. 13:00 270 m 7/8 1/8 Cu As -
Ortszeit Bedeckungsgrad in Achtel und Wolkenuntergrenze
Mo, 29.11. 12:00 4(240m) 7(1470m)
Mo, 29.11. 11:00 7(210m)
Mo, 29.11. 10:00 6(210m) 6(1080m)
Mo, 29.11. 9:00 2(210m) 7(1320m)
Mo, 29.11. 8:00 4(90m) 6(960m)
Mo, 29.11. 7:00 7(90m) 8(990m)
Ortszeit Stationsdruck (hPa) Tendenz (hPa in 3 Std.)
Mo, 29.11. 7:00 870 + 1,3
Mo, 29.11. 1:00 868 - 0,1
So, 28.11. 19:00 868 + 0,4
So, 28.11. 13:00 867 - 0,5
So, 28.11. 7:00 867 - 0,2
So, 28.11. 1:00 868 - 0,4
Sa, 27.11. 19:00 868 + 1,5
Sa, 27.11. 13:00 865 + 0,4
Ortszeit Stationsdruck (hPa) Tendenz (hPa in 3 Std.)
Mo, 29.11. 12:00 873 + 1,2
Mo, 29.11. 11:00 873 + 1,5
Mo, 29.11. 10:00 873 + 2,2
Mo, 29.11. 9:00 872 + 1,9
Mo, 29.11. 8:00 871 + 1,9
Mo, 29.11. 7:00 870 + 1,3
Ortszeit Schneehöhe (cm)
Mo, 29.11. 7:00 11
Mo, 29.11. 1:00 -
So, 28.11. 19:00 11
So, 28.11. 13:00 -
So, 28.11. 7:00 5
So, 28.11. 1:00 -
Sa, 27.11. 19:00 2
Sa, 27.11. 13:00 -
Ortszeit Schneehöhe (cm)
Mo, 29.11. 12:00 -
Mo, 29.11. 11:00 -
Mo, 29.11. 10:00 -
Mo, 29.11. 9:00 -
Mo, 29.11. 8:00 -
Mo, 29.11. 7:00 11
Link zu dieser Seite / Seite empfehlen

Das Wetter in ...